Cut Bank, MT

7:34 AM MDT on September 19, 2019 (GMT -0600)
Cut Bank Municipal

Weather History for KCTB - August, 2019

Change the Weather History Date:

Sunday, August 18, 2019

  Actual Average Record
Temperature  
Mean Temperature 65 °F 64 °F  
Max Temperature 80 °F 79 °F 95 °F (2008)
Min Temperature 50 °F 48 °F 36 °F (1910)
Degree Days  
Heating Degree Days 0 3  
Month to date heating degree days 43 45  
Since 1 June heating degree days 358 364  
Since 1 July heating degree days 136 131  
Cooling Degree Days 0 2  
Month to date cooling degree days 42 49  
Year to date cooling degree days 95 138  
Since 1 June cooling degree days 95 136  
Growing Degree Days 15 (Base 50)    
Moisture  
Dew Point 43 °F    
Average Humidity 47    
Maximum Humidity 77    
Minimum Humidity 25    
Precipitation  
Precipitation 0.00 in 0.04 in 0.76 in (1980)
Month to date precipitation 1.19 0.67  
Year to date precipitation 8.60 8.14  
Snow  
Snow - - - ()
Snow Depth 0.00 in    
Sea Level Pressure  
Sea Level Pressure 29.74 in    
Wind  
Wind Speed 10 mph ()    
Max Wind Speed 26 mph    
Max Gust Speed 32 mph    
Visibility 10.0 miles    
Events      
T = Trace of Precipitation, MM = Missing Value Source: Averaged Metar Reports

Daily Weather History Graph

Daily Weather History Graph

Search for Another Location

Airport or City:

Astronomy

Aug. 18, 2019 Rise Set
Actual Time 6:26 AM MDT 8:38 PM MDT
Civil Twilight 5:52 AM MDT 9:13 PM MDT
Nautical Twilight 5:09 AM MDT 9:55 PM MDT
Astronomical Twilight 4:21 AM MDT 10:43 PM MDT
Moon 10:21 PM MDT (8/18) 9:26 AM MDT (8/18)
Length of Visible Light 15h 20m
Length of Day
14h 12m
Waning Gibbous, 91% of the Moon is Illuminated
Aug 18
Waning Gibbous
Aug 23
Last Quarter
Aug 30
New
Sep 5
First Quarter
Sep 13
Full

Hourly Weather History & Observations

Time (MDT) Temp. Dew Point Humidity Pressure Visibility Wind Dir Wind Speed Gust Speed Precip Events Conditions
12:56 AM 50.0 °F 43.0 °F 77% 29.80 in 10.0 mi West 8.1 mph - N/A   Clear
1:56 AM 50.0 °F 42.1 °F 74% 29.78 in 10.0 mi WSW 9.2 mph - N/A   Clear
2:56 AM 53.1 °F 42.1 °F 66% 29.75 in 10.0 mi WSW 10.4 mph - N/A   Clear
3:56 AM 52.0 °F 42.1 °F 69% 29.74 in 10.0 mi WSW 9.2 mph - N/A   Clear
4:56 AM 53.1 °F 43.0 °F 69% 29.73 in 10.0 mi WSW 10.4 mph - N/A   Clear
5:56 AM 54.0 °F 43.0 °F 66% 29.72 in 10.0 mi WSW 8.1 mph - N/A   Clear
6:56 AM 52.0 °F 42.1 °F 69% 29.73 in 10.0 mi South 6.9 mph - N/A   Clear
7:56 AM 55.9 °F 44.1 °F 64% 29.73 in 10.0 mi SW 3.5 mph - N/A   Clear
8:56 AM 64.9 °F 43.0 °F 45% 29.72 in 10.0 mi WSW 18.4 mph 27.6 mph N/A   Clear
9:56 AM 68.0 °F 43.0 °F 40% 29.73 in 10.0 mi West 20.7 mph 29.9 mph N/A   Clear
10:56 AM 71.1 °F 43.0 °F 36% 29.74 in 10.0 mi West 23.0 mph 29.9 mph N/A   Clear
11:56 AM 73.9 °F 42.1 °F 32% 29.74 in 10.0 mi West 13.8 mph - N/A   Clear
12:56 PM 75.9 °F 42.1 °F 30% 29.74 in 10.0 mi West 13.8 mph 20.7 mph N/A   Clear
1:56 PM 77.0 °F 39.9 °F 26% 29.74 in 10.0 mi West 17.3 mph 21.9 mph N/A   Clear
2:56 PM 78.1 °F 39.9 °F 25% 29.74 in 10.0 mi WSW 9.2 mph 18.4 mph N/A   Clear
3:56 PM 79.0 °F 39.9 °F 25% 29.72 in 10.0 mi WSW 13.8 mph - N/A   Clear
4:56 PM 79.0 °F 42.1 °F 27% 29.72 in 10.0 mi West 9.2 mph - N/A   Clear
5:56 PM 78.1 °F 43.0 °F 29% 29.71 in 10.0 mi SW 17.3 mph - N/A   Clear
6:56 PM 75.0 °F 43.0 °F 32% 29.73 in 10.0 mi WSW 18.4 mph 24.2 mph N/A   Clear
7:56 PM 73.0 °F 43.0 °F 34% 29.73 in 10.0 mi WSW 15.0 mph - N/A   Clear
8:56 PM 66.9 °F 44.1 °F 44% 29.73 in 10.0 mi WSW 12.7 mph - N/A   Clear
9:56 PM 64.0 °F 45.0 °F 50% 29.74 in 10.0 mi WSW 11.5 mph - N/A   Clear
10:56 PM 62.1 °F 45.0 °F 53% 29.73 in 10.0 mi WSW 11.5 mph - N/A   Clear
11:56 PM 60.1 °F 45.0 °F 57% 29.74 in 10.0 mi West 5.8 mph - N/A   Clear